Regional Weather Roundup
Issued by NWS

Home | Current Version | Previous Version | Text Only | Print | Product List | Glossary On
Versions: 1 2 3 4 5 6 7 8 9 10 11 12 13 14 15 16 17 18 19 20 21 22 23 24 25 26 27
000
ASUS43 KMPX 181910
RWRMN
WEATHER ROUNDUP FOR MINNESOTA
NATIONAL WEATHER SERVICE TWIN CITIES/CHANHASSEN MN
200 PM CDT FRI JUN 18 2021


NOTE: "FAIR" INDICATES FEW OR NO CLOUDS BELOW 12,000 FEET WITH NO
SIGNIFICANT WEATHER AND/OR OBSTRUCTIONS TO VISIBILITY. N/A MEANS
CURRENT SKY AND/OR WEATHER CONDITIONS ARE NOT AVAILABLE.

MNZ060>063-068>070-182000-
   Twin Cities Metro

CITY           SKY/WX    TMP DP  RH WIND       PRES   REMARKS
TWIN CITIES    SUNNY     88  38  17 NW12G17   29.82S
ST PAUL        SUNNY     89  37  16 W17G25    29.81S
CRYSTAL        SUNNY     88  35  15 NW14G23   29.81S
BLAINE         SUNNY     88  34  14 NW14G22   29.81F
LAKEVILLE      SUNNY     86  41  20 NW10      29.83F
EDEN PRAIRIE   SUNNY     88  39  17 NW10      29.82S
SOUTH ST PAUL  SUNNY     88  35  15 NW12      29.82R
LAKE ELMO      FAIR      86  37  17 NW13      29.83S
$$
MNZ001>005-007-008-013>017-022>024-027-028-182000-
   Northwest Minnesota

CITY           SKY/WX    TMP DP  RH WIND       PRES   REMARKS
BEMIDJI        SUNNY     80  39  23 W26G33    29.81S
HALLOCK        MOSUNNY   75  46  35 NW12G20   29.80R
ROSEAU         MOSUNNY   73  48  40 NW15      29.79S
WARROAD        MOSUNNY   72  55  56 W14G25    29.78S
THIEF RVR FALL SUNNY     77  46  33 NW17G29   29.81F
CROOKSTON      MOSUNNY   81  39  22 W21G29    29.80F
FOSSTON        SUNNY     75  39  27 W23       29.83S
DETROIT LAKES  SUNNY     81  37  21 W15G23    29.84F
MOORHEAD       SUNNY     86  21   9 NW16G22   29.82F
PARK RAPIDS    SUNNY     82  40  22 W24G31    29.83S
MAHNOMEN         N/A     81  44  27 W16G24    29.82F
$$
MNZ006-009>011-018-025>026-182000-
   North Central Minnesota

CITY           SKY/WX    TMP DP  RH WIND       PRES   REMARKS
BAUDETTE       MOSUNNY   72  49  44 NW20G31   29.77S
FLAG ISLAND    MOSUNNY   64  48  55 N15       29.77S
INTL FALLS     MOSUNNY   71  49  45 W18G30    29.74R
WASKISH        SUNNY     75  48  38 W20G32    29.78S
BIG FORK       SUNNY     75  45  33 W15G23    29.82S
LONGVILLE      SUNNY     81  43  26 W12G21    29.81F
CRANE LAKE       N/A     72  48  43 W14G21    29.74S
ORR            MOSUNNY   73  45  35 NW14G23   29.71S
COOK           MOSUNNY   77  45  31 W23G37    29.73R
WALKER         CLEAR     79  44  28 W13G24    29.81S
$$
MNZ012-019>021-037-182000-
   Northeast Minnesota

CITY           SKY/WX    TMP DP  RH WIND       PRES   REMARKS
DULUTH         MOSUNNY   80  42  25 W25G41    29.75F
ELY            SUNNY     75  39  27 W23G39    29.69S
HIBBING        SUNNY     77  40  26 NW20G40   29.75F
DULUTH HARBOR  SUNNY     82  39  21 W28G35    29.73F
TWO HARBORS    SUNNY     81  46  30 W25G33    29.71R
SILVER BAY       N/A     79  39  24 W9G17     29.68S
GRAND MARAIS     N/A     81  47  30 W13G24    29.62F
G MARAIS ARPRT MOSUNNY   72  41  33 W9G24     29.67S
$$
MNZ029>031-032-039>041-046>048-054>057-064-182000-
   West Central Minnesota

CITY           SKY/WX    TMP DP  RH WIND       PRES   REMARKS
FERGUS FALLS   SUNNY     84  43  23 NW18      29.81F
WHEATON        SUNNY     86  34  15 W14       29.85F
MORRIS         SUNNY     88  21   8 NW13G20   29.86F
ALEXANDRIA     SUNNY     86  36  16 W15G29    29.87S
WADENA         SUNNY     84  46  26 W9G28     29.83F
GLENWOOD       SUNNY     88  36  15 NW17      29.86F
APPLETON       SUNNY     88  32  13 NW9       29.85F
BENSON         SUNNY     84  45  24 N12       29.85F
ORTONVILLE     SUNNY     86  39  19 CALM      29.86F
MADISON        SUNNY     90  34  13 N8        29.88F
WILLMAR        FAIR      88  34  14 W10G18    29.88F
$$
MNZ033>034-036-042>043-049>051-058-059-182000-
   Central Minnesota

CITY           SKY/WX    TMP DP  RH WIND       PRES   REMARKS
ST CLOUD       SUNNY     88  34  14 NW13G24   29.82S
PAYNESVILLE    SUNNY     88  39  18 NW14      29.85F
AITKIN         SUNNY     81  39  22 W14G23    29.80S
BRAINERD       SUNNY     86  38  18 W18G29    29.81F
STAPLES        SUNNY     88  34  14 NW16G26   29.83S
LONG PRAIRIE   FAIR      86  36  16 NW16G24   29.85F
LITTLE FALLS   SUNNY     86  21   9 W12G24    29.83S
CAMP RIPLEY    FAIR      87  37  17 W17G28    29.83F
LITCHFIELD     MOSUNNY   88  36  15 NW9       29.84F
BUFFALO        SUNNY     85  34  16 MISG      29.84F
MAPLE LAKE     SUNNY     86  45  23 NW7       29.84F
HUTCHINSON     MOSUNNY   87  46  24 W9        29.85F
$$
MNZ037-044-045-052-053-182000-
   East Central Minnesota

CITY           SKY/WX    TMP DP  RH WIND       PRES   REMARKS
PRINCETON      SUNNY     90  34  13 W15G25    29.82S
MORA           SUNNY     86  39  19 W16G25    29.82S
CAMBRIDGE      SUNNY     88  55  33 W12G20    29.81S
RUSH CITY      SUNNY     84  39  20 W10G22    29.81S
MOOSE LAKE     SUNNY     84  45  24 W9G17     29.77S
HINCKLEY       CLEAR     84  41  21 W13G25    29.80S
CLOQUET        SUNNY     79  37  22 NW21G33   29.76S
$$
MNZ071>073-080-081-089-090-097-098-182000-
   Southwest Minnesota

CITY           SKY/WX    TMP DP  RH WIND       PRES   REMARKS
MONTEVIDEO     SUNNY     86  30  13 N7        29.86F
GRANITE FALLS  SUNNY     87  48  25 SW3       29.88S
CANBY          SUNNY     88  37  16 NW6       29.88F
MARSHALL       SUNNY     86  47  25 VRB3      29.88F
REDWOOD FALLS  SUNNY     87  42  20 VRB7      29.85F
OLIVIA         SUNNY     88  37  16 NW8       29.85S
PIPESTONE      SUNNY     86  48  26 CALM      29.90F
WINDOM         SUNNY     88  46  23 CALM      29.88F
WORTHINGTON    SUNNY     87  51  28 VRB5      29.90F
JACKSON        SUNNY     86  45  23 W7        29.89F
TRACY          SUNNY     86  36  16 NE3       29.88F
SLAYTON        SUNNY     85  47  27 W9        29.92S
$$
MNZ065>067-074>077-082>085-091>093-182000-
   South Central Minnesota

CITY           SKY/WX    TMP DP  RH WIND       PRES   REMARKS
MANKATO        SUNNY     86  46  24 VRB3      29.86F
NEW ULM        SUNNY     84  43  23 CALM      29.85F
ST JAMES       SUNNY     84  45  24 CALM      29.86S
FAIRMONT       SUNNY     88  51  28 NW8       29.87F
GLENCOE        SUNNY     87  42  21 W9        29.84F
FARIBAULT      SUNNY     88  46  23 W6        29.85F
OWATONNA       SUNNY     88  46  23 NW12      29.85S
WASECA         SUNNY     86  46  25 W5        29.87F
ALBERT LEA     SUNNY     88  50  27 W7        29.85F
$$
MNZ078>079-086>088-094>096-182000-
   Southeast Minnesota

CITY           SKY/WX    TMP DP  RH WIND       PRES   REMARKS
ROCHESTER      SUNNY     86  53  32 W7        29.85S
RED WING       SUNNY     86  46  25 W8        29.81R
STANTON        SUNNY     85  48  28 W10       29.83S
DODGE CENTER   SUNNY     86  39  19 NW7       29.86S
WINONA         SUNNY     84  54  34 CALM      29.81F
AUSTIN         SUNNY     88  50  27 CALM      29.86S
$$
ABBREVIATIONS USED IN REMARKS
   TC - TEMPERATURES IN CELSIUS
  WCI - WIND CHILL INDEX
   HX - HEAT INDEX
  VSB - VISIBILITY
$$



USA.gov is the U.S. government's official web portal to all federal, state and local government web resources and services.